{"data":{"norad_id":47870,"epoch":"2026-09-20T03:53:31.373088Z","epoch_age_seconds":58337,"freshness":"FRESH","line1":"1 47870U 21021L   26263.16216867 -.00001715  00000+0 -43521-4 0  9992","line2":"2 47870  53.1607  95.9420 0001496  81.1867 278.9304 15.31694960305768","mean_motion":15.3169496,"eccentricity":0.0001496,"inclination_deg":53.1607,"raan_deg":95.942,"arg_perigee_deg":81.1867,"mean_anomaly_deg":278.9304,"bstar":-4.3521e-5,"rev_number":30576,"period_min":94.01349730889,"perigee_km":469.73042499851,"apogee_km":471.77961349066,"semimajor_km":6848.8920192446,"source":"CELESTRAK","updated_at":"2026-09-20T09:00:38.754730Z"}}